Location: Unspecified
(0.0000°N, 0.0000°E)
Time: 13:47:40
(UTC+00:00)

TIMED - Pass Details

Date: 30 July 2021
Orbit: 602 x 603 km, 74.1° (Epoch: 20 September)

Event Time Altitude Azimuth Distance (km) Brightness Sun altitude
Rises 04:33:36 0° 355° (N) 2,836 8.1 -22.0°
Reaches altitude 10° 04:35:52 10° 359° (N) 1,936 7.3 -21.4°
Maximum altitude 04:40:06 57° 78° (ENE) 711 5.1 -20.4°
Drops below altitude 10° 04:44:22 10° 156° (SSE) 1,946 7.1 -19.4°
Sets 04:46:38 0° 160° (SSE) 2,851 8.0 -18.9°
